Location: Prague
(50.0830°N, 14.4670°E)
Time: 23:45:00
(UTC+02:00)

Tiangong - Pass Details

Date: 06 October 2021
Orbit: 382 x 385 km, 41.5° (Epoch: 15 October)

Event Time Altitude Azimuth Distance (km) Brightness Sun altitude
Exits shadow 05:42:31 10° 194° (SSW) 1,379 3.6 -14.8°
Drops below altitude 10° 05:42:49 10° 189° (S) 1,396 3.7 -14.8°
Sets 05:46:24 0° 146° (SE) 2,245 5.3 -14.2°
